TimeCST,TemperatureF,Dew PointF,Humidity,Sea Level PressureIn,VisibilityMPH,Wind Direction,Wind SpeedMPH,Gust SpeedMPH,PrecipitationIn,Events,Conditions,WindDirDegrees,DateUTC
12:15 AM,34.7,23.2,63,30.34,10.0,NNW,8.1,-,N/A,,Clear,340,2012-12-05 06:15:00
12:35 AM,34.0,23.0,64,30.34,10.0,NNW,5.8,-,N/A,,Clear,340,2012-12-05 06:35:00
12:55 AM,32.2,22.8,68,30.35,10.0,North,5.8,-,N/A,,Clear,350,2012-12-05 06:55:00
1:15 AM,32.4,23.0,68,30.37,10.0,North,8.1,-,N/A,,Clear,360,2012-12-05 07:15:00
1:55 AM,31.5,22.8,70,30.38,10.0,North,4.6,-,N/A,,Clear,10,2012-12-05 07:55:00
2:15 AM,31.5,23.0,71,30.38,10.0,North,4.6,-,N/A,,Clear,10,2012-12-05 08:15:00
2:35 AM,31.1,22.5,70,30.39,10.0,North,5.8,-,N/A,,Clear,10,2012-12-05 08:35:00
2:55 AM,30.2,21.2,69,30.40,10.0,NNE,8.1,-,N/A,,Clear,20,2012-12-05 08:55:00
3:15 AM,29.3,20.8,71,30.40,10.0,North,6.9,-,N/A,,Clear,10,2012-12-05 09:15:00
3:35 AM,28.2,20.1,72,30.40,10.0,North,4.6,-,N/A,,Clear,10,2012-12-05 09:35:00
3:55 AM,27.5,19.4,72,30.40,10.0,North,6.9,-,N/A,,Clear,10,2012-12-05 09:55:00
4:15 AM,27.0,19.4,73,30.39,10.0,North,6.9,-,N/A,,Clear,10,2012-12-05 10:15:00
4:35 AM,26.6,19.2,74,30.40,10.0,North,5.8,-,N/A,,Clear,10,2012-12-05 10:35:00
4:55 AM,26.4,18.5,72,30.40,10.0,North,5.8,-,N/A,,Clear,10,2012-12-05 10:55:00
5:15 AM,25.7,18.3,74,30.41,10.0,NNE,5.8,-,N/A,,Clear,20,2012-12-05 11:15:00
5:35 AM,25.7,18.1,73,30.41,10.0,NNE,5.8,-,N/A,,Clear,20,2012-12-05 11:35:00
6:15 AM,25.5,17.6,72,30.41,10.0,NNE,6.9,-,N/A,,Clear,20,2012-12-05 12:15:00
6:35 AM,25.3,17.2,71,30.42,10.0,NNE,5.8,-,N/A,,Clear,30,2012-12-05 12:35:00
6:55 AM,24.1,16.7,73,30.43,10.0,NNE,5.8,-,N/A,,Clear,30,2012-12-05 12:55:00
8:35 AM,27.9,18.1,67,30.43,10.0,ENE,9.2,-,N/A,,Clear,60,2012-12-05 14:35:00
8:55 AM,28.6,18.3,65,30.43,10.0,East,10.4,-,N/A,,Clear,80,2012-12-05 14:55:00
9:15 AM,29.8,18.3,62,30.44,10.0,East,9.2,-,N/A,,Clear,90,2012-12-05 15:15:00
9:35 AM,30.6,18.5,61,30.44,10.0,East,8.1,-,N/A,,Clear,90,2012-12-05 15:35:00
9:55 AM,31.8,18.5,58,30.44,10.0,East,8.1,-,N/A,,Clear,80,2012-12-05 15:55:00
10:15 AM,32.2,18.9,58,30.43,10.0,East,9.2,-,N/A,,Clear,80,2012-12-05 16:15:00
10:35 AM,33.1,18.5,55,30.43,10.0,East,8.1,-,N/A,,Clear,100,2012-12-05 16:35:00
10:55 AM,34.0,18.0,52,30.44,10.0,ESE,4.6,-,N/A,,Clear,110,2012-12-05 16:55:00
11:15 AM,34.7,18.3,51,30.42,10.0,East,6.9,-,N/A,,Clear,100,2012-12-05 17:15:00
11:35 AM,36.0,19.4,51,30.40,10.0,ESE,8.1,-,N/A,,Clear,110,2012-12-05 17:35:00
11:55 AM,37.6,19.8,49,30.39,10.0,East,5.8,-,N/A,,Clear,80,2012-12-05 17:55:00
12:15 PM,37.9,18.3,45,30.38,10.0,East,5.8,-,N/A,,Clear,100,2012-12-05 18:15:00
12:35 PM,39.4,18.0,42,30.36,10.0,East,6.9,-,N/A,,Clear,80,2012-12-05 18:35:00
1:15 PM,39.7,17.8,41,30.34,10.0,ESE,8.1,-,N/A,,Clear,110,2012-12-05 19:15:00
1:35 PM,40.5,17.6,40,30.34,10.0,SE,10.4,-,N/A,,Clear,140,2012-12-05 19:35:00
1:55 PM,40.3,17.8,40,30.33,10.0,SE,8.1,-,N/A,,Clear,140,2012-12-05 19:55:00
2:15 PM,40.8,18.0,40,30.32,10.0,SE,6.9,-,N/A,,Clear,130,2012-12-05 20:15:00
2:35 PM,41.0,18.1,40,30.31,10.0,ESE,8.1,-,N/A,,Clear,120,2012-12-05 20:35:00
2:55 PM,40.8,18.7,41,30.31,10.0,SE,6.9,-,N/A,,Clear,130,2012-12-05 20:55:00
3:15 PM,40.5,18.0,40,30.32,10.0,SE,4.6,-,N/A,,Clear,140,2012-12-05 21:15:00
3:35 PM,39.4,17.8,42,30.31,10.0,ESE,5.8,-,N/A,,Clear,120,2012-12-05 21:35:00
3:55 PM,37.6,19.0,47,30.30,10.0,ESE,4.6,-,N/A,,Clear,120,2012-12-05 21:55:00
4:15 PM,36.1,19.8,51,30.30,10.0,East,4.6,-,N/A,,Clear,100,2012-12-05 22:15:00
4:35 PM,34.9,20.8,57,30.28,10.0,East,6.9,-,N/A,,Clear,100,2012-12-05 22:35:00
4:55 PM,34.5,20.8,57,30.27,10.0,East,4.6,-,N/A,,Clear,100,2012-12-05 22:55:00
5:15 PM,34.7,21.6,59,30.27,10.0,ESE,5.8,-,N/A,,Clear,110,2012-12-05 23:15:00
5:35 PM,33.8,21.6,61,30.27,10.0,ESE,4.6,-,N/A,,Clear,120,2012-12-05 23:35:00
5:55 PM,32.9,22.8,66,30.26,10.0,SE,4.6,-,N/A,,Clear,130,2012-12-05 23:55:00
6:15 PM,32.5,23.2,68,30.26,10.0,SE,4.6,-,N/A,,Clear,140,2012-12-06 00:15:00
6:35 PM,32.5,23.4,69,30.26,10.0,SE,6.9,-,N/A,,Clear,140,2012-12-06 00:35:00
6:55 PM,33.3,23.2,67,30.25,10.0,ESE,8.1,-,N/A,,Clear,120,2012-12-06 00:55:00
7:15 PM,34.5,23.9,65,30.24,10.0,SE,8.1,-,N/A,,Clear,130,2012-12-06 01:15:00
7:35 PM,35.6,23.7,62,30.24,10.0,SE,8.1,-,N/A,,Clear,130,2012-12-06 01:35:00
7:55 PM,35.6,24.4,64,30.24,10.0,SE,6.9,-,N/A,,Clear,130,2012-12-06 01:55:00
8:15 PM,36.1,25.3,65,30.23,10.0,SE,10.4,-,N/A,,Clear,140,2012-12-06 02:15:00
8:35 PM,35.6,26.4,69,30.22,10.0,SSE,9.2,-,N/A,,Clear,150,2012-12-06 02:35:00
8:55 PM,35.6,27.1,71,30.21,10.0,SE,9.2,-,N/A,,Clear,140,2012-12-06 02:55:00
9:15 PM,35.2,27.7,74,30.19,10.0,SE,9.2,-,N/A,,Clear,140,2012-12-06 03:15:00
9:35 PM,35.8,28.4,75,30.19,10.0,SE,11.5,-,N/A,,Clear,140,2012-12-06 03:35:00
9:55 PM,35.4,29.1,78,30.19,10.0,SE,11.5,-,N/A,,Clear,140,2012-12-06 03:55:00
10:15 PM,35.2,29.7,80,30.18,10.0,SSE,8.1,-,N/A,,Clear,150,2012-12-06 04:15:00
10:35 PM,35.4,30.2,81,30.18,10.0,SSE,9.2,-,N/A,,Clear,150,2012-12-06 04:35:00
10:55 PM,34.9,30.2,83,30.18,10.0,SE,8.1,-,N/A,,Clear,140,2012-12-06 04:55:00
11:15 PM,35.2,30.6,83,30.16,10.0,SE,10.4,-,N/A,,Clear,140,2012-12-06 05:15:00
11:35 PM,35.6,30.7,82,30.15,10.0,SE,9.2,-,N/A,,Clear,140,2012-12-06 05:35:00
11:55 PM,36.1,30.7,81,30.15,10.0,SE,12.7,-,N/A,,Clear,140,2012-12-06 05:55:00